EW9353 Weather Reports


time (UTC)temp
C
wind
direction
speed
KPH
gust
KPH
rain 1hr
cm
rain 24hr
cm
rain mn
cm
humidity
%
barometer
mb
20180625193200 17 224 4.8 8.0 0.00 0.00 0.00 95 1018.0
20180625191657 17 226 4.8 9.7 0.00 0.00 0.00 95 1017.8
20180625190157 17 229 6.4 11.3 0.00 0.00 0.00 94 1017.7
20180625184659 17 253 4.8 12.9 0.00 0.00 0.00 94 1017.8
20180625183154 17 234 6.4 9.7 0.00 0.00 0.00 93 1017.5
20180625181656 17 247 1.6 11.3 0.00 0.00 0.00 93 1017.4
20180625180156 17 236 4.8 9.7 0.00 0.00 0.00 93 1017.2
20180625174653 17 248 6.4 11.3 0.00 0.00 0.00 93 1017.1
20180625173154 17 215 4.8 8.0 0.00 0.00 0.00 93 1017.2
20180625171654 17 242 3.2 8.0 0.00 0.00 0.00 93 1017.2
20180625170151 17 235 4.8 9.7 0.00 0.00 0.00 93 1017.2
20180625164651 17 239 8.0 12.9 0.00 0.00 0.00 93 1017.3
20180625163155 17 236 1.6 8.0 0.00 0.00 0.00 93 1017.2
20180625161650 17 244 4.8 11.3 0.00 0.00 0.00 93 1017.4
20180625160152 17 250 4.8 11.3 0.00 0.00 0.00 93 1017.5
20180625154649 17 281 6.4 11.3 0.00 0.00 0.00 92 1017.5
20180625153147 18 259 4.8 9.7 0.00 0.00 0.00 92 1017.2
20180625151646 18 259 3.2 11.3 0.00 0.00 0.00 92 1017.1
20180625150147 18 290 4.8 9.7 0.00 0.00 0.00 92 1017.3
20180625144651 18 250 6.4 9.7 0.00 0.00 0.00 92 1017.3
20180625143144 18 277 4.8 9.7 0.00 0.00 0.00 93 1017.3
20180625141645 18 236 4.8 9.7 0.00 0.00 0.00 93 1017.3
20180625140143 17 297 4.8 9.7 0.00 0.00 0.00 94 1017.2
20180625134642 17 251 3.2 8.0 0.00 0.00 0.00 94 1017.1
20180625133141 17 234 3.2 8.0 0.00 0.00 0.00 95 1017.0
20180625131637 17 278 4.8 11.3 0.00 0.00 0.00 96 1017.0
20180625130139 17 284 3.2 11.3 0.00 0.00 0.00 96 1016.9
20180625124637 17 267 4.8 9.7 0.00 0.00 0.00 97 1017.0
20180625123139 17 259 4.8 11.3 0.00 0.00 0.00 97 1017.0
20180625121541 17 281 8.0 11.3 0.00 0.00 0.00 97 1016.9
20180625120137 17 263 4.8 9.7 0.00 0.00 0.00 97 1017.0
20180625114635 17 246 3.2 9.7 0.00 0.00 0.00 97 1017.0
20180625113132 16 275 3.2 9.7 0.00 0.00 0.00 98 1017.0
20180625111533 16 275 4.8 11.3 0.00 0.00 0.00 98 1016.9
20180625110131 17 276 6.4 9.7 0.00 0.00 0.00 97 1016.7
20180625104630 17 259 3.2 8.0 0.00 0.00 0.00 98 1016.6
20180625103126 17 265 3.2 8.0 0.00 0.00 0.00 98 1016.5
20180625101625 17 254 3.2 8.0 0.00 0.00 0.00 98 1016.4
20180625100123 17 250 1.6 6.4 0.00 0.00 0.00 98 1016.3
20180625094623 17 242 3.2 8.0 0.00 0.00 0.00 98 1016.2
20180625093124 16 257 4.8 9.7 0.00 0.00 0.00 98 1016.1
20180625091622 17 295 0.0 8.0 0.00 0.00 0.00 98 1015.9
20180625090020 17 360 0.0 6.4 0.00 0.00 0.00 98 1015.8
20180625084522 17 360 0.0 3.2 0.00 0.00 0.00 98 1015.7
20180625083020 17 5 1.6 6.4 0.00 0.00 0.00 98 1015.8
20180625081518 16 12 1.6 4.8 0.00 0.00 0.00 98 1015.7
20180625080016 16 17 0.0 6.4 0.00 0.00 0.00 98 1015.5
20180625074516 16 232 0.0 4.8 0.00 0.00 0.00 98 1015.4
20180625073015 16 269 0.0 4.8 0.00 0.00 0.00 98 1015.4
20180625071509 16 216 1.6 4.8 0.00 0.00 0.00 98 1015.1
20180625070006 16 213 0.0 1.6 0.00 0.00 0.00 98 1014.8
20180625064503 16 213 1.6 4.8 0.00 0.00 0.00 97 1014.9
20180625063001 16 117 0.0 0.0 0.00 0.00 0.00 97 1014.9
20180625061501 16 117 0.0 0.0 0.00 0.00 0.00 97 1014.8
20180625060002 16 117 0.0 1.6 0.00 0.00 0.00 97 1014.8
20180625054457 16 250 0.0 1.6 0.00 0.00 0.00 97 1014.7
20180625052954 16 250 0.0 6.4 0.00 0.00 0.00 97 1014.6
20180625051500 16 250 0.0 3.2 0.00 0.00 0.00 97 1014.7
20180625045953 16 250 0.0 4.8 0.00 0.00 0.00 97 1014.7
20180625044454 16 250 0.0 4.8 0.00 0.00 0.00 97 1014.5
20180625042951 16 250 1.6 3.2 0.00 0.00 0.00 97 1014.0
20180625041454 16 250 1.6 4.8 0.00 0.00 0.00 97 1013.9
20180625035950 16 250 0.0 4.8 0.00 0.00 0.00 97 1014.0
20180625034451 16 250 0.0 3.2 0.00 0.00 0.00 97 1013.7
20180625032949 16 250 0.0 1.6 0.00 0.00 0.00 96 1013.9
20180625031448 17 250 0.0 0.0 0.00 0.00 0.00 96 1014.0
20180625025948 17 250 0.0 4.8 0.00 0.00 0.00 96 1013.9
20180625024449 17 250 1.6 4.8 0.00 0.00 0.00 96 1014.0
20180625022949 17 250 1.6 4.8 0.00 0.00 0.00 96 1014.0
20180625021444 17 250 0.0 4.8 0.00 0.00 0.00 96 1014.0
20180625015944 17 250 0.0 6.4 0.00 0.00 0.00 95 1014.1
20180625014446 17 249 0.0 3.2 0.00 0.00 0.00 95 1014.1
20180625012943 17 249 1.6 4.8 0.00 0.00 0.00 95 1014.3
20180625011440 17 249 3.2 6.4 0.00 0.00 0.00 95 1014.3
20180625005938 16 250 0.0 1.6 0.00 0.00 0.00 95 1014.3
20180625004442 16 250 0.0 3.2 0.00 0.00 0.00 94 1014.4
20180625002938 16 250 0.0 3.2 0.00 0.00 0.00 94 1014.5
20180625001434 16 250 0.0 0.0 0.00 0.00 0.00 94 1014.6
20180624235933 17 250 0.0 0.0 0.00 0.00 0.00 93 1014.5
20180624234430 17 250 0.0 3.2 0.00 0.00 0.00 93 1014.5
20180624232928 17 250 0.0 4.8 0.00 0.00 0.00 93 1014.7
20180624231427 17 250 0.0 0.0 0.00 0.00 0.00 93 1014.7
20180624225926 17 250 0.0 0.0 0.00 0.00 0.00 92 1014.8
20180624224425 17 250 0.0 0.0 0.00 0.00 0.00 92 1014.9
20180624222923 18 250 0.0 0.0 0.00 0.00 0.00 91 1015.0
20180624221427 18 250 0.0 0.0 0.00 0.00 0.00 91 1015.1
20180624215925 18 250 0.0 3.2 0.00 0.00 0.00 90 1015.2
20180624214422 19 250 0.0 1.6 0.00 0.00 0.00 89 1015.2
20180624212920 19 250 0.0 0.0 0.00 0.00 0.00 88 1015.0
20180624211420 20 250 0.0 1.6 0.00 0.00 0.00 87 1014.8
20180624205918 20 250 0.0 1.6 0.00 0.00 0.00 86 1014.6
20180624204418 20 250 0.0 1.6 0.00 0.00 0.00 85 1014.4
20180624202916 20 250 4.8 9.7 0.00 0.00 0.00 85 1014.4
20180624201416 21 256 3.2 8.0 0.00 0.00 0.00 82 1014.3
20180624195916 21 265 6.4 11.3 0.00 0.00 0.00 82 1014.3
20180624194415 21 254 6.4 16.1 0.00 0.00 0.00 82 1014.2